Location: Rock Island IL
(41.5000°N, 90.5500°W)
Time: 18:21:21
(UTC-06:00)

Tiangong 1 - Visible Passes

Search period start: 24 November 2017 00:00
Search period end: 04 December 2017 00:00
Orbit: 283 x 307 km, 42.8° (Epoch: 24 November)

Date Brightness Start Highest point End Pass type
(mag) Time Alt. Az. Time Alt. Az. Time Alt. Az.
24 Nov 2.6 18:14:25 10° SSW 18:15:53 21° S 18:15:53 21° S visible
25 Nov 2.2 18:20:27 10° SW 18:22:07 31° SSW 18:22:07 31° SSW visible
26 Nov 2.4 18:26:36 10° WSW 18:28:10 32° WSW 18:28:10 32° WSW visible
27 Nov 2.9 18:32:46 10° W 18:34:02 25° W 18:34:02 25° W visible
28 Nov 1.1 17:04:09 10° WSW 17:06:41 51° SSE 17:09:13 10° E visible
28 Nov 3.4 18:38:50 10° W 18:39:46 19° W 18:39:46 19° W visible
29 Nov 0.5 17:09:58 10° WSW 17:12:33 84° S 17:15:01 11° ENE visible
29 Nov 3.8 18:44:46 10° W 18:45:21 15° WNW 18:45:21 15° WNW visible
30 Nov 0.6 17:15:44 10° W 17:18:20 71° N 17:20:29 14° ENE visible
30 Nov 4.1 18:50:32 10° WNW 18:50:50 12° WNW 18:50:50 12° WNW visible
01 Dec 0.7 17:21:25 10° W 17:24:00 61° N 17:25:52 16° ENE visible
01 Dec 4.4 18:56:10 10° W 18:56:12 10° W 18:56:12 10° W visible
02 Dec 0.6 17:26:57 10° WNW 17:29:31 64° N 17:31:11 19° E visible
03 Dec 0.4 17:32:19 10° WNW 17:34:54 81° NNE 17:36:27 21° E visible
